When you browse on this site, cookies collect data to enhance your experience and personalize the content and advertising you see.
Visit our Privacy Policy to learn more. By continuing to use the site, you agree to this use of cookies and data.
  • In France
  • List of Countries
  • For 7 days
  • Water Temperature
  • Weather Map
  • Weather Widgets
  • user-avatar
    Login

    Hourly Weather Malanje

    Today, 24 February, Monday

    Time Temperature Precipitation Wind Pressure Humidity
    00:00 +21°C° 0.1 mm 1 mps 665 mmHg 97%
    01:00 +21°C° 0.1 mm 1 mps 665 mmHg 97%
    02:00 +21°C° 0 mm 1 mps 665 mmHg 97%
    03:00 +21°C° 0 mm 1 mps 664 mmHg 97%
    04:00 +21°C° 0 mm 1 mps 664 mmHg 97%
    05:00 +21°C° 0 mm 1 mps 665 mmHg 97%
    06:00 +21°C° 0 mm 1 mps 665 mmHg 96%
    07:00 +21°C° 0 mm 1 mps 666 mmHg 96%
    08:00 +22°C° 0.3 mm 1 mps 666 mmHg 95%
    09:00 +22°C° 0.3 mm 1 mps 666 mmHg 93%
    10:00 +23°C° 0.3 mm 1 mps 667 mmHg 92%
    11:00 +24°C° 0.2 mm 2 mps 667 mmHg 86%
    12:00 +25°C° 0.2 mm 2 mps 666 mmHg 80%
    13:00 +26°C° 0.2 mm 2 mps 666 mmHg 74%
    14:00 +26°C° 0.1 mm 2 mps 666 mmHg 75%
    15:00 +25°C° 0.1 mm 2 mps 665 mmHg 75%
    16:00 +25°C° 0.1 mm 1 mps 665 mmHg 76%
    17:00 +24°C° 0 mm 1 mps 665 mmHg 80%
    18:00 +23°C° 0 mm 1 mps 665 mmHg 84%
    19:00 +22°C° 0 mm 1 mps 665 mmHg 88%
    20:00 +21°C° 0 mm 1 mps 665 mmHg 88%
    21:00 +21°C° 0 mm 1 mps 665 mmHg 89%
    22:00 +20°C° 0 mm 1 mps 665 mmHg 89%
    23:00 +20°C° 0 mm 1 mps 665 mmHg 90%

    Tomorrow, 25 February, Tuesday

    Time Temperature Precipitation Wind Pressure Humidity
    00:00 +20°C° 0 mm 1 mps 664 mmHg 92%
    01:00 +20°C° 0 mm 1 mps 664 mmHg 93%
    02:00 +20°C° 0 mm 1 mps 664 mmHg 94%
    03:00 +20°C° 0 mm 1 mps 664 mmHg 95%
    04:00 +20°C° 0 mm 1 mps 663 mmHg 95%
    05:00 +20°C° 0 mm 1 mps 664 mmHg 94%
    06:00 +21°C° 0 mm 1 mps 664 mmHg 93%
    07:00 +21°C° 0 mm 1 mps 665 mmHg 91%
    08:00 +21°C° 0 mm 0 mps 665 mmHg 86%
    09:00 +22°C° 0 mm 0 mps 665 mmHg 80%
    10:00 +24°C° 0 mm 0 mps 665 mmHg 75%
    11:00 +27°C° 0 mm 1 mps 665 mmHg 68%
    12:00 +29°C° 0 mm 1 mps 665 mmHg 62%
    13:00 +30°C° 0 mm 2 mps 665 mmHg 55%
    14:00 +29°C° 0.3 mm 2 mps 664 mmHg 61%
    15:00 +29°C° 0.3 mm 2 mps 663 mmHg 67%
    16:00 +28°C° 0.3 mm 3 mps 662 mmHg 73%
    17:00 +26°C° 0.3 mm 2 mps 663 mmHg 80%
    18:00 +24°C° 0.3 mm 2 mps 663 mmHg 87%
    19:00 +21°C° 0.3 mm 2 mps 663 mmHg 94%
    20:00 +21°C° 0.3 mm 2 mps 663 mmHg 95%
    21:00 +21°C° 0.3 mm 2 mps 664 mmHg 96%
    22:00 +21°C° 0.3 mm 1 mps 664 mmHg 97%
    23:00 +20°C° 0.2 mm 2 mps 664 mmHg 97%

    Day after tomorrow, 26 February, Wednesday

    Time Temperature Precipitation Wind Pressure Humidity
    00:00 +20°C° 0.2 mm 2 mps 664 mmHg 98%
    01:00 +20°C° 0.2 mm 2 mps 664 mmHg 98%
    02:00 +20°C° 0.2 mm 2 mps 663 mmHg 98%
    03:00 +20°C° 0.2 mm 2 mps 663 mmHg 97%
    04:00 +20°C° 0.2 mm 2 mps 663 mmHg 97%
    05:00 +20°C° 0 mm 2 mps 663 mmHg 97%
    06:00 +20°C° 0 mm 2 mps 664 mmHg 96%
    07:00 +21°C° 0 mm 1 mps 664 mmHg 96%
    08:00 +23°C° 0 mm 2 mps 664 mmHg 90%
    09:00 +24°C° 0 mm 2 mps 665 mmHg 84%
    10:00 +25°C° 0 mm 2 mps 665 mmHg 78%
    11:00 +26°C° 0.8 mm 2 mps 665 mmHg 78%
    12:00 +27°C° 0.8 mm 2 mps 664 mmHg 78%
    13:00 +27°C° 0.8 mm 2 mps 664 mmHg 79%
    14:00 +27°C° 1.1 mm 2 mps 663 mmHg 82%
    15:00 +26°C° 1.1 mm 2 mps 663 mmHg 85%
    16:00 +25°C° 1.1 mm 2 mps 662 mmHg 88%
    17:00 +24°C° 0.4 mm 2 mps 662 mmHg 90%
    18:00 +23°C° 0.4 mm 2 mps 663 mmHg 92%
    19:00 +21°C° 0.4 mm 2 mps 663 mmHg 94%
    20:00 +21°C° 0 mm 2 mps 663 mmHg 95%
    21:00 +20°C° 0 mm 2 mps 664 mmHg 95%
    22:00 +20°C° 0 mm 2 mps 664 mmHg 96%
    23:00 +20°C° 0 mm 2 mps 664 mmHg 96%

    27 February, Thursday

    Time Temperature Precipitation Wind Pressure Humidity
    00:00 +21°C° 0 mm 1 mps 664 mmHg 96%
    01:00 +21°C° 0 mm 1 mps 664 mmHg 96%
    02:00 +20°C° 0 mm 1 mps 664 mmHg 96%
    03:00 +20°C° 0 mm 1 mps 663 mmHg 97%
    04:00 +20°C° 0 mm 1 mps 663 mmHg 97%
    05:00 +20°C° 0 mm 1 mps 664 mmHg 97%
    06:00 +20°C° 0 mm 1 mps 664 mmHg 97%
    07:00 +20°C° 0 mm 1 mps 665 mmHg 97%
    08:00 +22°C° 0 mm 1 mps 665 mmHg 89%
    09:00 +23°C° 0 mm 2 mps 666 mmHg 82%
    10:00 +25°C° 0 mm 2 mps 666 mmHg 75%
    11:00 +26°C° 0 mm 2 mps 666 mmHg 70%
    12:00 +27°C° 0 mm 2 mps 665 mmHg 66%
    13:00 +29°C° 0 mm 2 mps 665 mmHg 62%
    14:00 +28°C° 0.1 mm 2 mps 665 mmHg 64%
    15:00 +28°C° 0.1 mm 2 mps 664 mmHg 67%
    16:00 +27°C° 0.1 mm 2 mps 663 mmHg 70%
    17:00 +26°C° 0.1 mm 2 mps 664 mmHg 75%
    18:00 +24°C° 0.1 mm 1 mps 664 mmHg 79%
    19:00 +23°C° 0.1 mm 1 mps 664 mmHg 84%
    20:00 +22°C° 0 mm 1 mps 665 mmHg 87%
    21:00 +21°C° 0 mm 1 mps 665 mmHg 89%
    22:00 +21°C° 0 mm 1 mps 665 mmHg 92%
    23:00 +21°C° 0 mm 1 mps 665 mmHg 93%

    28 February, Friday

    Time Temperature Precipitation Wind Pressure Humidity
    00:00 +20°C° 0 mm 1 mps 665 mmHg 94%
    01:00 +18°C° 0 mm 0 mps 664 mmHg 96%
    02:00 +18°C° 0 mm 0 mps 664 mmHg 96%
    03:00 +18°C° 0 mm 0 mps 664 mmHg 97%
    04:00 +18°C° 0 mm 0 mps 664 mmHg 97%
    05:00 +18°C° 0 mm 0 mps 665 mmHg 96%
    06:00 +18°C° 0 mm 0 mps 665 mmHg 95%
    07:00 +19°C° 0 mm 0 mps 666 mmHg 94%
    08:00 +21°C° 0.2 mm 0 mps 666 mmHg 87%
    09:00 +24°C° 0.2 mm 0 mps 667 mmHg 80%
    10:00 +26°C° 0.2 mm 0 mps 668 mmHg 73%
    11:00 +29°C° 0.5 mm 1 mps 667 mmHg 68%
    12:00 +29°C° 0.5 mm 1 mps 667 mmHg 64%
    13:00 +29°C° 0.5 mm 2 mps 666 mmHg 59%
    14:00 +29°C° 0.1 mm 1 mps 666 mmHg 61%
    15:00 +29°C° 0.1 mm 1 mps 665 mmHg 62%
    16:00 +29°C° 0.1 mm 1 mps 664 mmHg 63%
    17:00 +27°C° 0.3 mm 1 mps 664 mmHg 70%
    18:00 +25°C° 0.3 mm 1 mps 664 mmHg 77%
    19:00 +23°C° 0.3 mm 1 mps 664 mmHg 84%
    20:00 +23°C° 0.8 mm 1 mps 664 mmHg 87%
    21:00 +20°C° 0.8 mm 0 mps 665 mmHg 90%
    22:00 +19°C° 0.8 mm 0 mps 665 mmHg 93%
    23:00 +19°C° 0.2 mm 0 mps 665 mmHg 93%

    29 February, Saturday

    Time Temperature Precipitation Wind Pressure Humidity
    00:00 +19°C° 0.2 mm 0 mps 664 mmHg 93%
    01:00 +19°C° 0.2 mm 0 mps 664 mmHg 93%
    02:00 +19°C° 0.5 mm 0 mps 664 mmHg 93%
    03:00 +19°C° 0.5 mm 0 mps 664 mmHg 94%
    04:00 +19°C° 0.5 mm 0 mps 664 mmHg 94%
    05:00 +19°C° 0 mm 0 mps 664 mmHg 94%
    06:00 +19°C° 0 mm 0 mps 665 mmHg 93%
    07:00 +19°C° 0 mm 0 mps 665 mmHg 93%
    08:00 +21°C° 0.1 mm 0 mps 665 mmHg 89%
    09:00 +22°C° 0.1 mm 0 mps 666 mmHg 86%
    10:00 +23°C° 0.1 mm 0 mps 666 mmHg 82%
    11:00 +25°C° 0.3 mm 0 mps 666 mmHg 73%
    12:00 +28°C° 0.3 mm 0 mps 666 mmHg 63%
    13:00 +30°C° 0.3 mm 0 mps 666 mmHg 54%
    14:00 +31°C° 0 mm 1 mps 666 mmHg 56%
    15:00 +30°C° 0 mm 1 mps 665 mmHg 58%
    16:00 +29°C° 0 mm 2 mps 664 mmHg 61%
    17:00 +27°C° 0.3 mm 2 mps 664 mmHg 71%
    18:00 +25°C° 0.3 mm 2 mps 664 mmHg 81%
    19:00 +21°C° 0.3 mm 2 mps 663 mmHg 90%
    20:00 +22°C° 0.2 mm 1 mps 664 mmHg 92%
    21:00 +21°C° 0.2 mm 1 mps 664 mmHg 93%
    22:00 +21°C° 0.2 mm 1 mps 664 mmHg 94%
    23:00 +20°C° 0 mm 1 mps 664 mmHg 94%
    Show more